Location: Unspecified
(41.5000°N, 0.0000°E)
Time: 09:20:20
(UTC+00:00)

Vanguard 2 - Pass Details

Date: 21 June 2019
Orbit: 553 x 2938 km, 32.9° (Epoch: 20 July)

Event Time Altitude Azimuth Distance (km) Brightness Sun altitude
Rises 07:34:29 0° 214° (SW) 3,014 10.3 32.3°
Reaches altitude 10° 07:37:00 10° 198° (SSW) 2,298 9.9 32.8°
Maximum altitude 07:41:04 22° 148° (SSE) 1,963 10.2 33.5°
Drops below altitude 10° 07:46:36 10° 102° (ESE) 3,253 12.1 34.6°
Sets 07:51:02 0° 89° (E) 4,699 12.6 35.4°
